When you browse on this site, cookies collect data to enhance your experience and personalize the content and advertising you see.
Visit our Privacy Policy to learn more. By continuing to use the site, you agree to this use of cookies and data.
  • In Austria
  • List of Countries
  • For 7 days
  • Water Temperature
  • Satellite Maps
  • Weather Map
  • News
  • Weather Widgets
  • user-avatar
    Login

    Hourly Weather Roquefort-sur-Soulzon

    Today, 23 April, Tuesday

    Time Temperature Precipitation Wind Pressure Humidity
    00:00 +10°C° 0 mm 2 mps 702 mmHg 81%
    01:00 +10°C° 0.3 mm 2 mps 702 mmHg 84%
    02:00 +10°C° 0.3 mm 2 mps 701 mmHg 87%
    03:00 +10°C° 0.3 mm 2 mps 701 mmHg 91%
    04:00 +10°C° 0.4 mm 2 mps 701 mmHg 92%
    05:00 +10°C° 0.4 mm 2 mps 701 mmHg 92%
    06:00 +10°C° 0.4 mm 2 mps 701 mmHg 93%
    07:00 +10°C° 0.3 mm 2 mps 701 mmHg 92%
    08:00 +11°C° 0.3 mm 3 mps 701 mmHg 90%
    09:00 +11°C° 0.3 mm 3 mps 701 mmHg 89%
    10:00 +11°C° 0.3 mm 3 mps 700 mmHg 89%
    11:00 +11°C° 0.3 mm 4 mps 700 mmHg 88%
    12:00 +11°C° 0.3 mm 4 mps 700 mmHg 88%
    13:00 +12°C° 0.4 mm 4 mps 700 mmHg 87%
    14:00 +12°C° 0.4 mm 5 mps 700 mmHg 85%
    15:00 +12°C° 0.4 mm 5 mps 700 mmHg 84%
    16:00 +12°C° 0.1 mm 5 mps 700 mmHg 87%
    17:00 +11°C° 0.1 mm 6 mps 699 mmHg 90%
    18:00 +11°C° 0.1 mm 6 mps 699 mmHg 92%
    19:00 +10°C° 0.1 mm 6 mps 700 mmHg 93%
    20:00 +10°C° 0.1 mm 6 mps 700 mmHg 93%
    21:00 +10°C° 0.1 mm 6 mps 701 mmHg 94%
    22:00 +10°C° 0.1 mm 6 mps 701 mmHg 93%
    23:00 +10°C° 0.1 mm 6 mps 702 mmHg 93%

    Tomorrow, 24 April, Wednesday

    Time Temperature Precipitation Wind Pressure Humidity
    00:00 +10°C° 0.1 mm 7 mps 702 mmHg 92%
    01:00 +10°C° 0.4 mm 6 mps 702 mmHg 93%
    02:00 +10°C° 0.4 mm 6 mps 702 mmHg 94%
    03:00 +10°C° 0.4 mm 5 mps 702 mmHg 95%
    04:00 +11°C° 0.3 mm 4 mps 703 mmHg 95%
    05:00 +10°C° 0.3 mm 3 mps 703 mmHg 95%
    06:00 +10°C° 0.3 mm 2 mps 704 mmHg 95%
    07:00 +11°C° 0.2 mm 3 mps 704 mmHg 88%
    08:00 +12°C° 0.2 mm 4 mps 704 mmHg 81%
    09:00 +12°C° 0.2 mm 5 mps 705 mmHg 74%
    10:00 +12°C° 1 mm 5 mps 705 mmHg 72%
    11:00 +13°C° 1 mm 5 mps 705 mmHg 71%
    12:00 +13°C° 1 mm 4 mps 705 mmHg 69%
    13:00 +14°C° 0.2 mm 5 mps 705 mmHg 58%
    14:00 +15°C° 0.2 mm 5 mps 706 mmHg 48%
    15:00 +17°C° 0.2 mm 6 mps 706 mmHg 37%
    16:00 +15°C° 0 mm 5 mps 706 mmHg 46%
    17:00 +13°C° 0 mm 5 mps 706 mmHg 55%
    18:00 +10°C° 0 mm 5 mps 706 mmHg 64%
    19:00 +9°C° 0 mm 6 mps 707 mmHg 70%
    20:00 +8°C° 0 mm 6 mps 707 mmHg 77%
    21:00 +8°C° 0 mm 7 mps 707 mmHg 83%
    22:00 +8°C° 0 mm 7 mps 707 mmHg 83%
    23:00 +8°C° 0 mm 7 mps 707 mmHg 83%

    Day after tomorrow, 25 April, Thursday

    Time Temperature Precipitation Wind Pressure Humidity
    00:00 +7°C° 0 mm 8 mps 707 mmHg 84%
    01:00 +7°C° 0 mm 8 mps 707 mmHg 84%
    02:00 +8°C° 0 mm 7 mps 707 mmHg 84%
    03:00 +8°C° 0 mm 7 mps 707 mmHg 84%
    04:00 +8°C° 0.4 mm 7 mps 708 mmHg 87%
    05:00 +8°C° 0.4 mm 7 mps 708 mmHg 90%
    06:00 +8°C° 0.4 mm 7 mps 708 mmHg 93%
    07:00 +9°C° 0.3 mm 7 mps 708 mmHg 93%
    08:00 +9°C° 0.3 mm 8 mps 708 mmHg 92%
    09:00 +10°C° 0.3 mm 8 mps 708 mmHg 92%
    10:00 +10°C° 1 mm 8 mps 708 mmHg 93%
    11:00 +10°C° 1 mm 7 mps 709 mmHg 94%
    12:00 +10°C° 1 mm 6 mps 709 mmHg 95%
    13:00 +9°C° 3 mm 5 mps 709 mmHg 96%
    14:00 +10°C° 3 mm 4 mps 709 mmHg 97%
    15:00 +10°C° 3 mm 3 mps 709 mmHg 97%
    16:00 +10°C° 2 mm 3 mps 709 mmHg 97%
    17:00 +10°C° 2 mm 2 mps 709 mmHg 98%
    18:00 +10°C° 2 mm 2 mps 709 mmHg 98%
    19:00 +9°C° 1.3 mm 2 mps 710 mmHg 95%
    20:00 +8°C° 1.3 mm 2 mps 711 mmHg 92%
    21:00 +7°C° 1.3 mm 2 mps 711 mmHg 90%
    22:00 +7°C° 0.2 mm 2 mps 712 mmHg 89%
    23:00 +7°C° 0.2 mm 1 mps 712 mmHg 89%

    26 April, Friday

    Time Temperature Precipitation Wind Pressure Humidity
    00:00 +7°C° 0.2 mm 1 mps 712 mmHg 88%
    01:00 +7°C° 0 mm 1 mps 713 mmHg 89%
    02:00 +6°C° 0 mm 1 mps 713 mmHg 90%
    03:00 +6°C° 0 mm 1 mps 713 mmHg 91%
    04:00 +6°C° 0 mm 1 mps 714 mmHg 92%
    05:00 +6°C° 0 mm 1 mps 714 mmHg 93%
    06:00 +5°C° 0 mm 2 mps 715 mmHg 94%
    07:00 +7°C° 0 mm 3 mps 716 mmHg 84%
    08:00 +8°C° 0 mm 4 mps 716 mmHg 75%
    09:00 +10°C° 0 mm 5 mps 717 mmHg 66%
    10:00 +10°C° 0.1 mm 5 mps 717 mmHg 67%
    11:00 +10°C° 0.1 mm 5 mps 717 mmHg 68%
    12:00 +10°C° 0.1 mm 6 mps 717 mmHg 69%
    13:00 +10°C° 0.3 mm 6 mps 717 mmHg 72%
    14:00 +10°C° 0.3 mm 6 mps 717 mmHg 74%
    15:00 +10°C° 0.3 mm 6 mps 717 mmHg 77%
    16:00 +9°C° 0.1 mm 6 mps 718 mmHg 79%
    17:00 +8°C° 0.1 mm 6 mps 718 mmHg 82%
    18:00 +8°C° 0.1 mm 5 mps 718 mmHg 84%
    19:00 +7°C° 0 mm 5 mps 719 mmHg 87%
    20:00 +6°C° 0 mm 4 mps 719 mmHg 90%
    21:00 +5°C° 0 mm 3 mps 720 mmHg 92%
    22:00 +5°C° 0 mm 4 mps 720 mmHg 92%
    23:00 +4°C° 0 mm 4 mps 720 mmHg 92%

    27 April, Saturday

    Time Temperature Precipitation Wind Pressure Humidity
    00:00 +4°C° 0 mm 4 mps 721 mmHg 92%
    01:00 +4°C° 0 mm 4 mps 721 mmHg 93%
    02:00 +4°C° 0 mm 4 mps 721 mmHg 93%
    03:00 +3°C° 0 mm 5 mps 721 mmHg 93%
    04:00 +3°C° 0 mm 5 mps 721 mmHg 92%
    05:00 +3°C° 0 mm 5 mps 721 mmHg 91%
    06:00 +5°C° 0 mm 5 mps 721 mmHg 90%
    07:00 +6°C° 0 mm 5 mps 722 mmHg 86%
    08:00 +7°C° 0 mm 6 mps 722 mmHg 82%
    09:00 +7°C° 0 mm 6 mps 722 mmHg 78%
    10:00 +9°C° 0 mm 6 mps 722 mmHg 73%
    11:00 +10°C° 0 mm 6 mps 722 mmHg 68%
    12:00 +11°C° 0 mm 6 mps 722 mmHg 63%
    13:00 +11°C° 0 mm 6 mps 722 mmHg 61%
    14:00 +13°C° 0 mm 6 mps 722 mmHg 60%
    15:00 +13°C° 0 mm 5 mps 721 mmHg 58%
    16:00 +12°C° 0 mm 5 mps 722 mmHg 63%
    17:00 +12°C° 0 mm 4 mps 722 mmHg 68%
    18:00 +11°C° 0 mm 4 mps 722 mmHg 72%
    19:00 +9°C° 0 mm 3 mps 722 mmHg 79%
    20:00 +8°C° 0 mm 3 mps 722 mmHg 85%
    21:00 +7°C° 0 mm 2 mps 723 mmHg 92%
    22:00 +6°C° 0 mm 2 mps 723 mmHg 93%
    23:00 +6°C° 0 mm 2 mps 722 mmHg 93%

    28 April, Sunday

    Time Temperature Precipitation Wind Pressure Humidity
    00:00 +5°C° 0 mm 2 mps 722 mmHg 94%
    01:00 +5°C° 0 mm 2 mps 722 mmHg 95%
    02:00 +5°C° 0 mm 2 mps 722 mmHg 95%
    03:00 +5°C° 0 mm 2 mps 722 mmHg 95%
    04:00 +5°C° 0 mm 2 mps 722 mmHg 92%
    05:00 +6°C° 0 mm 2 mps 722 mmHg 90%
    06:00 +6°C° 0 mm 2 mps 722 mmHg 88%
    07:00 +9°C° 0 mm 2 mps 722 mmHg 78%
    08:00 +13°C° 0 mm 2 mps 722 mmHg 68%
    09:00 +14°C° 0 mm 3 mps 722 mmHg 57%
    10:00 +17°C° 0 mm 2 mps 722 mmHg 52%
    11:00 +18°C° 0 mm 2 mps 721 mmHg 47%
    12:00 +20°C° 0 mm 2 mps 721 mmHg 42%
    13:00 +21°C° 0 mm 2 mps 720 mmHg 41%
    14:00 +21°C° 0 mm 2 mps 720 mmHg 40%
    15:00 +21°C° 0 mm 2 mps 719 mmHg 40%
    16:00 +20°C° 0 mm 2 mps 719 mmHg 49%
    17:00 +19°C° 0 mm 1 mps 719 mmHg 57%
    18:00 +18°C° 0 mm 1 mps 718 mmHg 66%
    19:00 +15°C° 0 mm 1 mps 718 mmHg 73%
    20:00 +12°C° 0 mm 0 mps 718 mmHg 80%
    21:00 +10°C° 0 mm 0 mps 718 mmHg 88%
    22:00 +9°C° 0 mm 0 mps 718 mmHg 88%
    23:00 +9°C° 0 mm 0 mps 718 mmHg 89%
    Show more